THOR ABLESTAR DEB, 2620

Orbit data source: Space-Track

THOR ABLESTAR DEB, 2620 is space debris in LEO originally from a launch on Thu, 05 Dec 1963 UTC launched from the Air Force Western Test Range (AFWTR). Debris objects in space refer to the collection of defunct objects orbiting the Earth. Examples of debris include non-operational satellites, rocket bodies, and fragments generated from explosions, collisions, or faulty payload assembly.

Loading next visibility...
Identifier
2620, 1963-049H
Orbit
LEO
Country
Flag of USUS
Related business
Manufacturer
Unknown
Mission
Spacecraft
Bus & Motor
Unknown
Mass
Unknown
Launch date (UTC)
1963-12-05 (62 years ago)
Launch vehicle
Unknown
Launch site
Air Force Western Test Range (AFWTR)
Object type
Payload
Rocket body
Debris
Shape & HBR
Unknown shape, 0.1 m
Radar Cross Section
Small (<0.1 m²)

Expand to show TLE details & history
Last TLE update: 22 hours ago

TLE from 22 hours ago
0 THOR ABLESTAR DEB
1 02620U 63049H   25315.30957124  .00000470  00000-0  62041-3 0  9996
2 02620  89.9169  74.3744 0015321  23.1218  35.6455 13.59627412 60781
Epoch: 2025-11-11T07:25Z
TLE epoch observation values (Epoch: 2025-11-11T07:25:46.955Z)
Latitude
58.96128°
Longitude
-87.63184°
Altitude
1,037.884 km
Speed
7.343 km/s
True Right ascension
04h 58m 02s
True Declination
58° 48' 54"
Sunlit
Object was in full shadow at epoch
Visualization orbit readout
Latitude
Unknown
Longitude
Unknown
Altitude
Unknown
Speed
Unknown
Apparent Right ascension
Unknown
Apparent Declination
Unknown
Sunlit
N/A
Visualization observer readout
Local Sidereal Time
01:37:25
Azimuth
Unknown
Elevation
Unknown
Doppler factor
Unknown
Orbital elements
Apogee altitude
1,045.438 km
Perigee altitude
1,022.726 km
Semi-major axis
7,412.219 km
Eccentricity
0.00153
Inclination
89.9169°
RAAN
74.3744°
Arg. of periapsis
23.1218°
True anomaly
35.74797°
Mean anomaly
35.6455°
Eccentric anomaly
35.69672°
Mean motion
3.40111 °/min
Orbital period
105.85 mins
BSTAR
0.00062041
Loading maneuver chart data...
Computing Atmospheric mass density...
Loading historical data...
Loading historical data...
Loading historical data...
Loading historical data...
Loading historical data...
Loading historical data...
Loading historical data...

Documentation

Showing up to 5 results
|